Other Surface Observations
Issued by NWS Tucson, AZ

Home | Current Version | Previous Version | Text Only | Print | Product List | Glossary On
Versions: 1 2 3 4 5 6 7 8 9 10 11 12 13 14 15 16 17 18 19 20 21 22 23 24 25 26 27 28 29 30 31 32 33 34 35 36 37 38 39 40 41 42 43 44 45 46 47 48 49 50
877
SXUS55 KTWC 282215
OSOTWC

WEATHER ROUNDUP FOR SOUTHEAST ARIZONA
NATIONAL WEATHER SERVICE TUCSON AZ
315 PM MST SUN AUG 28 2016

AZZ504>506-514-282315-
LOCATION       SKY/WX    TMP DP  RH WIND       PRES   REMARKS
TUCSON         SUNNY     95  39  14 CALM      30.00F
DAVIS-MONTHAN  SUNNY     92  40  16 VRB2      29.99F
CHILDRENS PARK N/A      N/A N/A  14 W1                PIMA CO DEQ
ALVERNON/22ND  N/A       92 N/A N/A NW4               PIMA CO DEQ
CHERRY/GLENN   N/A      N/A N/A N/A N/A               PIMA CO DEQ
TANGERINE      N/A       93 N/A N/A SW4               PIMA CO DEQ
CONTL RANCH    N/A       95  36  13 W6                PIMA CO DEQ
GRANT/1ST      N/A       93  37  14 NE0               PIMA CO DEQ
CRAYCROFT/22ND N/A       93  37  14 N/A               PIMA CO DEQ
GOLFLINKS/KOLB N/A      N/A N/A N/A N/A               PIMA CO DEQ
AJO/12TH       N/A       93  40  16 SE4               PIMA CO DEQ
SAGUARO EAST   N/A       33  -7  16 W6                PIMA CO DEQ
FAIRGROUNDS    N/A       90 N/A N/A N/A               PIMA CO DEQ
SAGUARO        N/A       96  41  15 SW5G11            *SABINO CYN
SAN CARLOS     N/A       95  42  16 SW3G12            *SAN CARLOS
GREEN VALLEY   N/A       90  36  15 E3                PIMA CO DEQ
HORSE CAMP CYN N/A       90  39  17 SW9G18            *ARAVAIPA CYN
RINCON MTNS    NOT AVBL
$$

AZZ509>511-282315-
LOCATION       SKY/WX    TMP DP  RH WIND       PRES   REMARKS
SAFFORD        SUNNY     93  37  14 MISG      30.00F
STRAY HORSE    N/A       67  38  34 W8G13             *
TRAIL CABIN    N/A       79  38  23 W6G13             *N OF GRANVILLE
BLACK HILLS    NOT AVBL
DRY LAKE       N/A       77  38  25 SW4G10            *NATANES MTNS
NOON CREEK     N/A       85  39  20 N4G12             *PINALENO MTNS
COLUMBINE      N/A       62  35  37 SW4G14            *PINALENO MTNS
GUTHRIE        N/A       77  39  26 SW9G20            *SW OF GUTHRIE
$$

AZZ502-503-513-282315-
LOCATION       SKY/WX    TMP DP  RH WIND       PRES   REMARKS
NOGALES        SUNNY     90  40  17 VRB7      30.08F
SELLS          N/A       98  41  14 E3G10             *
SASABE         N/A       91  39  16 N4G10             *ALTAR VLY
HOPKINS        N/A       80  38  22 SW6G14            *SANTA RITA MTNS
CARR CYN       N/A       82  45  27 S3                *W OF HEREFORD
$$

AZZ507-508-512-282315-
LOCATION       SKY/WX    TMP DP  RH WIND       PRES   REMARKS
SIERRA VISTA   PTSUNNY   84  39  20 VRB2      30.13F
DOUGLAS        SUNNY     89  39  17 W12       30.07F
EMPIRE MTNS    NOT AVBL
MULESHOE RANCH N/A       89  34  14 NW10G17           *PRESERVE
HEADQUARTERS   NOT AVBL
$$

.............................NOTES.............................
THIS IS AN AUTOMATED COLLECTIVE WITH MINIMAL QUALITY CONTROL.
PIMA CO DEQ SITES HAVE NONSTANDARD WIND SENSOR HEIGHTS.
PIMA CO DEQ SITES DO NOT REPORT WIND GUSTS.
* INDICATES WIND SENSORS LOCATED AT 20 FEET INSTEAD OF 33 FEET.
..............................KEY..............................
SKY/WX - SKY CONDITION/WEATHER
TMP    - TEMPERATURE IN FAHRENHEIT
DP     - DEWPOINT IN FAHRENHEIT
RH     - RELATIVE HUMIDITY IN PERCENT
WIND   - DIRECTION AND SPEED IN MILES PER HOUR (MPH)
VRB    - VARIABLE WIND DIRECTION
PRES   - MEAN SEA LEVEL PRESSURE IN INCHES OF MERCURY
         F - FALLING PRESSURE   R - RISING PRESSURE
         S - STEADY PRESSURE
VSB    - VISIBILITY IN MILES
HX     - HEAT INDEX IN FAHRENHEIT
WCI    - WIND CHILL INDEX IN FAHRENHEIT
N/A    - NOT AVAILABLE
AFB    - AIR FORCE BASE
         DAVIS-MONTHAN IS DAVIS-MONTHAN AIR FORCE BASE
CYN    - CANYON
MTNS   - MOUNTAINS
NCA    - NATIONAL CONSERVATION AREA
NR     - NEAR
VLY    - VALLEY
CONTL  - CONTINENTAL
PIMA CO DEQ - PIMA COUNTY DEPT OF ENVIRONMENTAL QUALITY



USA.gov is the U.S. government's official web portal to all federal, state and local government web resources and services.